International Virtual Aviation Organisation

Russian Federation and Kazakhstan MCD

 

Карточка аэропорта UNOO

Внимание!
Информация на этой странице в стадии наполнения.
Если вы не увидели какой-то информации, или заметили неточность - пожалуйста сообщите нам!
Спасибо!
Команда RU-STAFF
Название аэропортаЦентральный
Название аэропорта (англ.)Tsentralny
Превышение303 ft. (92.4 m.)
Координаты54°58.02', 73°19.02'
Высота перехода800m
Эшелон переходаQFE>=751mm:FL050; QFE<751=>724:FL060; QFE<724:FL070
Коды ответчика5440-5467
Зона ОрВДНовосибирск РПИ (UNNT)
Данные METARUNOO 170930Z 28005MPS 4300 -SN BKN008 M06/M07 Q1023 R25/490535 NOSIG RMK QFE759
Проноз погоды (TAF)UNOO 170755Z 1709/1809 27003G09MPS 3100 -SHSN BKN008 BKN020CB TEMPO 1709/1724 1100 SHSN
NOTAMshow/hide NOTAM
AWOS   TABLE

Информация о ВПП

ВПП Длина ВПП (м.) Покрытие Курс ВПП Частота ILS
072501Асфальтобетон65108.3
252501Асфальтобетон245110.1

Диспетчерские позиции

Позывной Наименование органа УВД Частота
UNOO_GNDОмск-Руление121.700
UNOO_TWRОмск - Старт119.000
UNOO_APPОмск - Подход131.200



Спутниковое изображение